• In Lithuania
  • List of Countries
  • For 7 days
  • Water Temperature
  • Satellite Maps
  • Weather Map
  • Weather Widgets
  • user-avatar
    Login

    Hourly Weather Dungarpur

    Today, 20 September, Thursday

    Time Temperature Precipitation Wind Pressure Humidity
    00:00 +29°C° 0 mm 2 mps 729 mmHg 54%
    01:00 +29°C° 0 mm 2 mps 729 mmHg 55%
    02:00 +28°C° 0 mm 2 mps 729 mmHg 57%
    03:00 +28°C° 0 mm 2 mps 729 mmHg 57%
    04:00 +27°C° 0 mm 2 mps 729 mmHg 58%
    05:00 +27°C° 0 mm 1 mps 729 mmHg 61%
    06:00 +28°C° 0 mm 2 mps 729 mmHg 60%
    07:00 +29°C° 0 mm 2 mps 729 mmHg 59%
    08:00 +30°C° 0 mm 2 mps 730 mmHg 57%
    09:00 +32°C° 0 mm 2 mps 730 mmHg 51%
    10:00 +34°C° 0 mm 2 mps 730 mmHg 45%
    11:00 +35°C° 0 mm 1 mps 730 mmHg 37%
    12:00 +36°C° 0 mm 1 mps 730 mmHg 34%
    13:00 +37°C° 0 mm 2 mps 729 mmHg 31%
    14:00 +38°C° 0 mm 2 mps 729 mmHg 29%
    15:00 +37°C° 0 mm 2 mps 729 mmHg 32%
    16:00 +36°C° 0 mm 2 mps 728 mmHg 36%
    17:00 +34°C° 0 mm 1 mps 728 mmHg 39%
    18:00 +33°C° 0 mm 1 mps 728 mmHg 40%
    19:00 +32°C° 0 mm 1 mps 729 mmHg 41%
    20:00 +31°C° 0 mm 1 mps 729 mmHg 41%
    21:00 +30°C° 0 mm 2 mps 729 mmHg 43%
    22:00 +30°C° 0 mm 2 mps 729 mmHg 44%
    23:00 +29°C° 0 mm 2 mps 729 mmHg 45%

    Tomorrow, 21 September, Friday

    Time Temperature Precipitation Wind Pressure Humidity
    00:00 +29°C° 0 mm 2 mps 728 mmHg 45%
    01:00 +28°C° 0 mm 2 mps 728 mmHg 45%
    02:00 +28°C° 0 mm 2 mps 727 mmHg 45%
    03:00 +28°C° 0 mm 2 mps 727 mmHg 45%
    04:00 +27°C° 0 mm 2 mps 727 mmHg 46%
    05:00 +27°C° 0 mm 2 mps 727 mmHg 46%
    06:00 +28°C° 0 mm 2 mps 728 mmHg 47%
    07:00 +29°C° 0 mm 2 mps 728 mmHg 48%
    08:00 +29°C° 0 mm 3 mps 729 mmHg 49%
    09:00 +31°C° 0 mm 3 mps 729 mmHg 44%
    10:00 +34°C° 0 mm 4 mps 729 mmHg 40%
    11:00 +36°C° 0 mm 5 mps 729 mmHg 35%
    12:00 +37°C° 0 mm 5 mps 729 mmHg 34%
    13:00 +37°C° 0 mm 5 mps 728 mmHg 34%
    14:00 +39°C° 0 mm 5 mps 728 mmHg 33%
    15:00 +37°C° 0 mm 5 mps 727 mmHg 37%
    16:00 +36°C° 0 mm 4 mps 727 mmHg 41%
    17:00 +36°C° 0 mm 3 mps 727 mmHg 45%
    18:00 +34°C° 0 mm 3 mps 727 mmHg 50%
    19:00 +31°C° 0 mm 3 mps 727 mmHg 55%
    20:00 +30°C° 0 mm 2 mps 727 mmHg 61%
    21:00 +29°C° 0 mm 2 mps 728 mmHg 63%
    22:00 +29°C° 0 mm 2 mps 728 mmHg 66%
    23:00 +29°C° 0 mm 2 mps 728 mmHg 69%

    Day after tomorrow, 22 September, Saturday

    Time Temperature Precipitation Wind Pressure Humidity
    00:00 +28°C° 0.8 mm 2 mps 728 mmHg 74%
    01:00 +28°C° 0.8 mm 3 mps 727 mmHg 79%
    02:00 +27°C° 0.8 mm 3 mps 727 mmHg 85%
    03:00 +27°C° 1.1 mm 3 mps 727 mmHg 86%
    04:00 +27°C° 1.1 mm 3 mps 727 mmHg 87%
    05:00 +27°C° 1.1 mm 3 mps 727 mmHg 88%
    06:00 +27°C° 0.8 mm 4 mps 727 mmHg 87%
    07:00 +27°C° 0.8 mm 4 mps 727 mmHg 86%
    08:00 +27°C° 0.8 mm 5 mps 728 mmHg 85%
    09:00 +29°C° 0.8 mm 5 mps 728 mmHg 80%
    10:00 +30°C° 0.8 mm 5 mps 728 mmHg 76%
    11:00 +32°C° 0.8 mm 5 mps 728 mmHg 71%
    12:00 +32°C° 2 mm 5 mps 727 mmHg 70%
    13:00 +33°C° 2 mm 5 mps 727 mmHg 70%
    14:00 +33°C° 2 mm 5 mps 726 mmHg 69%
    15:00 +32°C° 3 mm 4 mps 726 mmHg 72%
    16:00 +31°C° 3 mm 3 mps 726 mmHg 76%
    17:00 +30°C° 3 mm 2 mps 726 mmHg 79%
    18:00 +29°C° 2.8 mm 3 mps 726 mmHg 82%
    19:00 +28°C° 2.8 mm 3 mps 727 mmHg 84%
    20:00 +27°C° 2.8 mm 3 mps 727 mmHg 87%
    21:00 +27°C° 1 mm 3 mps 727 mmHg 88%
    22:00 +26°C° 1 mm 3 mps 728 mmHg 90%
    23:00 +26°C° 1 mm 3 mps 728 mmHg 91%

    23 September, Sunday

    Time Temperature Precipitation Wind Pressure Humidity
    00:00 +26°C° 0 mm 3 mps 728 mmHg 92%
    01:00 +26°C° 0 mm 3 mps 728 mmHg 93%
    02:00 +25°C° 0 mm 2 mps 727 mmHg 94%
    03:00 +25°C° 0.1 mm 2 mps 727 mmHg 94%
    04:00 +25°C° 0.1 mm 2 mps 727 mmHg 94%
    05:00 +25°C° 0.1 mm 2 mps 728 mmHg 94%
    06:00 +25°C° 0.2 mm 3 mps 728 mmHg 93%
    07:00 +26°C° 0.2 mm 3 mps 729 mmHg 93%
    08:00 +26°C° 0.2 mm 3 mps 730 mmHg 92%
    09:00 +26°C° 0.1 mm 4 mps 730 mmHg 91%
    10:00 +26°C° 0.1 mm 5 mps 730 mmHg 90%
    11:00 +26°C° 0.1 mm 5 mps 730 mmHg 89%
    12:00 +26°C° 0.1 mm 5 mps 729 mmHg 89%
    13:00 +26°C° 0.1 mm 5 mps 729 mmHg 88%
    14:00 +26°C° 0.1 mm 5 mps 728 mmHg 88%
    15:00 +26°C° 0.1 mm 5 mps 728 mmHg 88%
    16:00 +25°C° 0.1 mm 5 mps 728 mmHg 89%
    17:00 +25°C° 0.1 mm 4 mps 728 mmHg 89%
    18:00 +25°C° 0 mm 4 mps 729 mmHg 90%
    19:00 +25°C° 0 mm 4 mps 729 mmHg 90%
    20:00 +25°C° 0 mm 4 mps 730 mmHg 90%
    21:00 +23°C° 0.1 mm 4 mps 730 mmHg 90%
    22:00 +23°C° 0.1 mm 4 mps 730 mmHg 91%
    23:00 +24°C° 0.1 mm 3 mps 730 mmHg 91%

    24 September, Monday

    Time Temperature Precipitation Wind Pressure Humidity
    00:00 +24°C° 0.1 mm 3 mps 729 mmHg 92%
    01:00 +24°C° 0.1 mm 3 mps 729 mmHg 92%
    02:00 +24°C° 0.1 mm 3 mps 729 mmHg 92%
    03:00 +24°C° 0.3 mm 3 mps 729 mmHg 93%
    04:00 +24°C° 0.3 mm 3 mps 729 mmHg 94%
    05:00 +24°C° 0.3 mm 3 mps 729 mmHg 94%
    06:00 +25°C° 0.1 mm 4 mps 730 mmHg 92%
    07:00 +25°C° 0.1 mm 4 mps 730 mmHg 91%
    08:00 +26°C° 0.1 mm 5 mps 731 mmHg 89%
    09:00 +27°C° 0 mm 5 mps 731 mmHg 84%
    10:00 +28°C° 0 mm 5 mps 731 mmHg 80%
    11:00 +29°C° 0 mm 6 mps 731 mmHg 75%
    12:00 +29°C° 0.2 mm 6 mps 730 mmHg 73%
    13:00 +30°C° 0.2 mm 6 mps 730 mmHg 71%
    14:00 +32°C° 0.2 mm 6 mps 729 mmHg 68%
    15:00 +30°C° 0.2 mm 5 mps 729 mmHg 70%
    16:00 +30°C° 0.2 mm 5 mps 729 mmHg 73%
    17:00 +29°C° 0.2 mm 4 mps 729 mmHg 75%
    18:00 +28°C° 0.1 mm 4 mps 729 mmHg 79%
    19:00 +27°C° 0.1 mm 3 mps 730 mmHg 83%
    20:00 +26°C° 0.1 mm 3 mps 730 mmHg 87%
    21:00 +26°C° 0 mm 2 mps 730 mmHg 88%
    22:00 +26°C° 0 mm 2 mps 730 mmHg 89%
    23:00 +26°C° 0 mm 2 mps 730 mmHg 91%

    25 September, Tuesday

    Time Temperature Precipitation Wind Pressure Humidity
    00:00 +25°C° 0 mm 2 mps 730 mmHg 91%
    01:00 +25°C° 0 mm 2 mps 730 mmHg 92%
    02:00 +25°C° 0 mm 2 mps 729 mmHg 93%
    03:00 +25°C° 0 mm 2 mps 729 mmHg 93%
    04:00 +25°C° 0 mm 2 mps 729 mmHg 94%
    05:00 +25°C° 0 mm 2 mps 729 mmHg 95%
    06:00 +25°C° 0 mm 2 mps 730 mmHg 91%
    07:00 +26°C° 0 mm 2 mps 731 mmHg 88%
    08:00 +27°C° 0 mm 3 mps 731 mmHg 84%
    09:00 +28°C° 0.4 mm 3 mps 731 mmHg 79%
    10:00 +30°C° 0.4 mm 3 mps 731 mmHg 74%
    11:00 +32°C° 0.4 mm 4 mps 731 mmHg 68%
    12:00 +32°C° 1.3 mm 4 mps 730 mmHg 67%
    13:00 +33°C° 1.3 mm 4 mps 730 mmHg 66%
    14:00 +33°C° 1.3 mm 4 mps 729 mmHg 65%
    15:00 +32°C° 1.1 mm 4 mps 729 mmHg 68%
    16:00 +31°C° 1.1 mm 3 mps 729 mmHg 70%
    17:00 +31°C° 1.1 mm 3 mps 729 mmHg 72%
    18:00 +30°C° 0.2 mm 2 mps 729 mmHg 75%
    19:00 +29°C° 0.2 mm 2 mps 729 mmHg 77%
    20:00 +28°C° 0.2 mm 2 mps 730 mmHg 79%
    21:00 +28°C° 0 mm 2 mps 730 mmHg 80%
    22:00 +27°C° 0 mm 2 mps 730 mmHg 81%
    23:00 +27°C° 0 mm 3 mps 730 mmHg 81%
    Show more